Location: Cheyres
(46.8153°N, 6.7877°E)
Time: 14:02:54
(UTC+00:00)

ATLAS 2AS CENTAUR R/B - Pass Details

Date: 11 May 2021
Orbit: 949 x 1263 km, 63.7° (Epoch: 07 May)

Event Time Altitude Azimuth Distance (km) Brightness Sun altitude
Rises 19:31:22 0° 313° (NW) 4,169 8.1 -6.0°
Reaches altitude 10° 19:34:44 10° 325° (NW) 3,165 6.6 -6.4°
Maximum altitude 19:41:06 28° 22° (NNE) 2,033 4.4 -7.3°
Drops below altitude 10° 19:47:06 10° 80° (E) 2,973 4.6 -8.1°
Enters shadow 19:49:39 - 90° (E) 3,724 5.1 -8.5°
